TimePST,TemperatureF,Dew PointF,Humidity,Sea Level PressureIn,VisibilityMPH,Wind Direction,Wind SpeedMPH,Gust SpeedMPH,PrecipitationIn,Events,Conditions,WindDirDegrees,DateUTC
12:53 AM,24.1,21.0,88,30.51,4.0,Calm,Calm,-,N/A,,Clear,0,2013-01-20 08:53:00
1:05 AM,23.0,19.4,86,30.42,1.8,SSW,3.5,-,N/A,,Clear,210,2013-01-20 09:05:00
1:31 AM,21.2,19.4,93,30.43,0.5,Calm,Calm,-,N/A,Fog,Light Freezing Fog,0,2013-01-20 09:31:00
1:38 AM,23.0,19.4,86,30.43,0.2,Calm,Calm,-,N/A,Fog,Light Freezing Fog,0,2013-01-20 09:38:00
1:49 AM,23.0,19.4,86,30.44,1.0,Calm,Calm,-,N/A,,Mist,0,2013-01-20 09:49:00
1:50 AM,23.0,19.0,85,30.51,1.0,Calm,Calm,-,N/A,,Mist,0,2013-01-20 09:50:00
1:53 AM,23.0,19.4,86,30.44,2.0,Calm,Calm,-,N/A,,Scattered Clouds,0,2013-01-20 09:53:00
2:07 AM,19.4,17.6,93,30.45,0.8,Calm,Calm,-,N/A,,Mist,0,2013-01-20 10:07:00
2:15 AM,21.2,17.6,86,30.46,0.2,Calm,Calm,-,N/A,Fog,Light Freezing Fog,0,2013-01-20 10:15:00
2:32 AM,21.2,17.6,86,30.46,1.0,Calm,Calm,-,N/A,,Mist,0,2013-01-20 10:32:00
2:34 AM,21.2,17.6,86,30.46,2.5,Calm,Calm,-,N/A,,Scattered Clouds,0,2013-01-20 10:34:00
2:41 AM,21.2,17.6,86,30.46,3.0,Calm,Calm,-,N/A,,Scattered Clouds,0,2013-01-20 10:41:00
2:45 AM,21.2,17.6,86,30.46,1.0,Calm,Calm,-,N/A,,Mist,0,2013-01-20 10:45:00
2:47 AM,19.4,17.6,93,30.45,0.5,Calm,Calm,-,N/A,Fog,Light Freezing Fog,0,2013-01-20 10:47:00
2:53 AM,21.0,17.1,85,30.53,0.2,NE,3.5,-,N/A,Fog,Light Freezing Fog,40,2013-01-20 10:53:00
3:00 AM,21.2,17.6,86,30.46,1.0,Calm,Calm,-,N/A,,Mist,0,2013-01-20 11:00:00
3:06 AM,21.2,17.6,86,30.46,2.0,Calm,Calm,-,N/A,,Scattered Clouds,0,2013-01-20 11:06:00
3:12 AM,21.2,17.6,86,30.45,0.8,Calm,Calm,-,N/A,,Mist,0,2013-01-20 11:12:00
3:19 AM,19.4,15.8,86,30.45,0.5,ENE,4.6,-,N/A,Fog,Light Freezing Fog,70,2013-01-20 11:19:00
3:32 AM,21.2,19.4,93,30.46,1.0,Calm,Calm,-,N/A,,Overcast,0,2013-01-20 11:32:00
3:44 AM,21.2,19.4,93,30.46,2.5,Calm,Calm,-,N/A,,Overcast,0,2013-01-20 11:44:00
3:53 AM,19.9,17.1,89,30.53,1.8,Calm,Calm,-,N/A,,Overcast,0,2013-01-20 11:53:00
3:58 AM,21.2,17.6,86,30.47,0.8,Calm,Calm,-,N/A,,Overcast,0,2013-01-20 11:58:00
4:10 AM,21.2,17.6,86,30.46,2.0,SSW,4.6,-,N/A,,Overcast,210,2013-01-20 12:10:00
4:20 AM,21.2,19.4,93,30.46,4.0,Calm,Calm,-,N/A,,Overcast,0,2013-01-20 12:20:00
4:34 AM,21.2,17.6,86,30.46,4.0,Calm,Calm,-,N/A,,Overcast,0,2013-01-20 12:34:00
4:50 AM,21.2,17.6,86,30.45,2.0,Calm,Calm,-,N/A,,Overcast,0,2013-01-20 12:50:00
4:53 AM,21.9,19.0,89,30.53,1.5,Calm,Calm,-,N/A,,Overcast,0,2013-01-20 12:53:00
5:11 AM,23.0,19.4,86,30.44,0.5,ENE,3.5,-,N/A,Fog,Light Freezing Fog,60,2013-01-20 13:11:00
5:53 AM,21.9,19.0,89,30.54,0.2,Calm,Calm,-,N/A,Fog,Light Freezing Fog,0,2013-01-20 13:53:00
6:37 AM,21.2,17.6,86,30.46,1.0,Calm,Calm,-,N/A,,Mist,0,2013-01-20 14:37:00
6:53 AM,21.0,18.0,88,30.54,2.5,Calm,Calm,-,N/A,,Overcast,0,2013-01-20 14:53:00
6:59 AM,21.2,17.6,86,30.46,0.2,Calm,Calm,-,N/A,Fog,Light Freezing Fog,0,2013-01-20 14:59:00
7:53 AM,21.0,18.0,88,30.55,0.5,Calm,Calm,-,N/A,Fog,Light Freezing Fog,0,2013-01-20 15:53:00
8:53 AM,21.0,17.1,85,30.57,0.5,Calm,Calm,-,N/A,Fog,Light Freezing Fog,0,2013-01-20 16:53:00
9:53 AM,21.0,18.0,88,30.58,0.8,Calm,Calm,-,N/A,,Overcast,0,2013-01-20 17:53:00
10:18 AM,21.2,19.4,93,30.51,1.0,Calm,Calm,-,N/A,,Overcast,0,2013-01-20 18:18:00
10:32 AM,21.2,19.4,93,30.50,2.5,Calm,Calm,-,N/A,,Overcast,0,2013-01-20 18:32:00
10:53 AM,21.9,19.9,92,30.58,2.5,Calm,Calm,-,N/A,,Overcast,0,2013-01-20 18:53:00
11:04 AM,21.2,19.4,93,30.49,2.5,Calm,Calm,-,N/A,,Overcast,0,2013-01-20 19:04:00
11:53 AM,23.0,21.0,92,30.55,2.5,Calm,Calm,-,N/A,,Mostly Cloudy,0,2013-01-20 19:53:00
12:06 PM,24.8,19.4,80,30.47,3.0,Calm,Calm,-,N/A,,Mostly Cloudy,0,2013-01-20 20:06:00
12:36 PM,24.8,21.2,86,30.46,4.0,SSW,4.6,-,N/A,,Partly Cloudy,210,2013-01-20 20:36:00
12:53 PM,25.0,21.0,85,30.54,4.0,SW,4.6,-,N/A,,Partly Cloudy,220,2013-01-20 20:53:00
1:53 PM,27.0,21.9,81,30.51,5.0,Calm,Calm,-,N/A,,Haze,0,2013-01-20 21:53:00
2:53 PM,30.9,21.9,69,30.51,6.0,Calm,Calm,-,N/A,,Haze,0,2013-01-20 22:53:00
3:53 PM,30.9,21.9,69,30.49,6.0,Calm,Calm,-,N/A,,Haze,0,2013-01-20 23:53:00
4:53 PM,28.0,21.0,75,30.50,6.0,Calm,Calm,-,N/A,,Haze,0,2013-01-21 00:53:00
5:53 PM,26.1,21.0,81,30.49,9.0,Calm,Calm,-,N/A,,Clear,0,2013-01-21 01:53:00
6:53 PM,23.0,19.9,88,30.49,9.0,Calm,Calm,-,N/A,,Clear,0,2013-01-21 02:53:00
7:53 PM,23.0,19.0,85,30.48,6.0,Calm,Calm,-,N/A,,Clear,0,2013-01-21 03:53:00
8:43 PM,21.2,17.6,86,30.39,1.8,Calm,Calm,-,N/A,,Clear,0,2013-01-21 04:43:00
8:53 PM,21.9,17.1,82,30.48,1.5,Calm,Calm,-,N/A,,Haze,0,2013-01-21 04:53:00
8:58 PM,21.2,17.6,86,30.39,3.0,Calm,Calm,-,N/A,,Clear,0,2013-01-21 04:58:00
9:19 PM,21.2,17.6,86,30.40,2.0,Calm,Calm,-,N/A,,Clear,0,2013-01-21 05:19:00
9:34 PM,21.2,17.6,86,30.40,2.5,Calm,Calm,-,N/A,,Haze,0,2013-01-21 05:34:00
9:48 PM,21.2,17.6,86,30.40,1.2,Calm,Calm,-,N/A,,Haze,0,2013-01-21 05:48:00
9:49 PM,21.0,17.1,85,30.48,1.2,Calm,Calm,-,N/A,,Mostly Cloudy,0,2013-01-21 05:49:00
9:59 PM,21.2,17.6,86,30.40,2.5,Calm,Calm,-,N/A,,Mostly Cloudy,0,2013-01-21 05:59:00
10:13 PM,21.2,17.6,86,30.39,4.0,Calm,Calm,-,N/A,,Overcast,0,2013-01-21 06:13:00
10:27 PM,21.2,17.6,86,30.40,2.5,Calm,Calm,-,N/A,,Haze,0,2013-01-21 06:27:00
10:29 PM,21.2,17.6,86,30.40,1.0,Calm,Calm,-,N/A,,Haze,0,2013-01-21 06:29:00
10:31 PM,21.2,17.6,86,30.39,0.5,Calm,Calm,-,N/A,,Haze,0,2013-01-21 06:31:00
10:39 PM,21.2,19.4,93,30.39,0.2,Calm,Calm,-,N/A,Fog,Light Freezing Fog,0,2013-01-21 06:39:00
10:53 PM,19.9,16.0,85,30.48,0.2,Calm,Calm,-,N/A,Fog,Light Freezing Fog,0,2013-01-21 06:53:00
11:04 PM,21.2,17.6,86,30.40,0.2,Calm,Calm,-,N/A,Fog,Light Freezing Fog,0,2013-01-21 07:04:00
11:16 PM,19.4,17.6,93,30.40,1.0,Calm,Calm,-,N/A,,Mist,0,2013-01-21 07:16:00
11:23 PM,19.4,17.6,93,30.40,3.0,Calm,Calm,-,N/A,,Overcast,0,2013-01-21 07:23:00
11:38 PM,21.2,15.8,80,30.40,1.5,Calm,Calm,-,N/A,,Haze,0,2013-01-21 07:38:00
11:43 PM,21.2,17.6,86,30.39,0.5,Calm,Calm,-,N/A,Fog,Light Freezing Fog,0,2013-01-21 07:43:00
11:53 PM,21.0,17.1,85,30.47,0.2,Calm,Calm,-,N/A,Fog,Light Freezing Fog,0,2013-01-21 07:53:00